Location: Newark
(40.9833°N, 0.0333°W)
Time: 07:42:47
(UTC+00:00)

Transit 4A - Pass Details

Date: 06 November 2020
Orbit: 862 x 982 km, 66.8° (Epoch: 28 November)

Event Time Altitude Azimuth Distance (km) Brightness Sun altitude
Rises 11:20:31 0° 159° (SSE) 3,577 12.0 32.6°
Reaches altitude 10° 11:24:00 10° 139° (SE) 2,662 11.2 32.6°
Maximum altitude 11:27:41 17° 102° (ESE) 2,250 10.3 32.7°
Drops below altitude 10° 11:31:26 10° 66° (ENE) 2,713 10.2 32.7°
Sets 11:35:00 0° 46° (NE) 3,679 10.7 32.8°
